Location: Göttingen
(51.5413°N, 9.9158°E)
Time: 04:15:59
(UTC+02:00)

CAS-4B - Visible Passes

Search period start: 02 July 2022 00:00
Search period end: 12 July 2022 00:00
Orbit: 523 x 536 km, 43.0° (Epoch: 01 July)

Date Brightness Start Highest point End Pass type
(mag) Time Alt. Az. Time Alt. Az. Time Alt. Az.
02 Jul ? 02:58:20 12° SSE 02:58:40 12° SSE 03:00:10 10° SE visible
03 Jul ? 02:46:07 13° SSE 02:46:07 13° SSE 02:48:04 10° SE visible
03 Jul ? 04:21:58 10° SW 04:25:13 23° S 04:28:28 10° ESE visible
04 Jul ? 02:33:54 15° SSE 02:33:54 15° SSE 02:35:49 10° ESE visible
04 Jul ? 04:09:23 10° SW 04:12:40 24° S 04:15:57 10° ESE visible
05 Jul ? 02:21:42 16° SE 02:21:42 16° SE 02:23:29 10° ESE visible
05 Jul ? 03:56:53 10° SW 04:00:07 24° S 04:03:26 10° ESE visible
06 Jul ? 02:09:31 16° SE 02:09:31 16° SE 02:11:06 10° ESE visible
06 Jul ? 03:44:42 12° SW 03:47:33 24° S 03:50:52 10° SE visible
07 Jul ? 01:57:23 15° SE 01:57:23 15° SE 01:58:40 10° ESE visible
07 Jul ? 03:32:35 14° SW 03:35:00 24° S 03:38:18 10° SE visible
08 Jul ? 01:45:22 14° SE 01:45:22 14° SE 01:46:12 10° ESE visible
08 Jul ? 03:20:35 17° SW 03:22:26 24° S 03:25:41 10° SE visible
09 Jul ? 01:33:36 11° ESE 01:33:36 11° ESE 01:33:43 10° ESE visible
09 Jul ? 03:08:49 21° SSW 03:09:51 23° S 03:13:04 10° SE visible
10 Jul ? 02:57:33 22° S 02:57:33 22° S 03:00:25 10° SE visible
11 Jul ? 02:47:11 13° SSE 02:47:11 13° SSE 02:47:45 10° SE visible
11 Jul ? 23:11:15 10° SSW 23:13:19 15° SSE 23:13:19 15° SSE visible
